Miscellaneous Local Product
Issued by NWS Hastings, NE

Home | Current Version | Previous Version | Text Only | Print | Product List | Glossary On
Versions: 1 2 3 4 5 6 7 8 9 10 11 12 13 14 15 16 17 18 19 20 21 22 23 24 25 26 27 28 29 30 31 32 33 34 35 36 37 38 39 40 41 42 43 44 45 46 47 48 49 50
000
AXUS43 KGID 290502
MISGRI

GID CWA HOURLY WEATHER ROUNDUP
NATIONAL WEATHER SERVICE HASTINGS NE
1200 AM CDT SUN MAR 29 2015

NOTE: "FAIR" INDICATES FEW OR NO CLOUDS BELOW 12,000 FEET WITH NO
SIGNIFICANT WEATHER AND/OR OBSTRUCTIONS TO VISIBILITY.

...SOUTH CENTRAL NEBRASKA...

CITY           SKY/WX    TMP DP  RH WIND       PRES   REMARKS
GRAND ISLAND   CLEAR     48  35  60 S23G32    29.82F
HASTINGS       CLEAR     50  36  58 S18G29    29.81F
KEARNEY        CLEAR     52  36  54 S20G25    29.81S
ORD            CLEAR     50  34  54 S15       29.78S
YORK           PTCLDY    45  36  70 S20G25    29.85F
AURORA         CLEAR     46  34  62 S18G25    29.83F
LEXINGTON      PTCLDY    58  39  50 N8        29.87R
HOLDREGE       CLEAR     53  37  54 S17G25    29.80S
HEBRON         CLEAR     47  34  60 S14       29.89F

...NEBRASKA PANHANDLE...

CITY           SKY/WX    TMP DP  RH WIND       PRES   REMARKS
CHADRON        CLEAR     61  37  41 NW16G30   29.87R
ALLIANCE       CLEAR     59  32  36 NW20G29   29.84R
SCOTTSBLUFF    CLEAR     59  33  37 NW21G31   29.91R
SIDNEY         MOCLDY    63  28  26 W18       29.89R

...WESTERN AND NORTH CENTRAL NEBRASKA...

CITY           SKY/WX    TMP DP  RH WIND       PRES   REMARKS
VALENTINE      CLOUDY    65  41  41 N22G31    29.78R
AINSWORTH      CLOUDY    58  37  44 SW7       29.75R
ONEILL         MOCLDY    52  36  53 S20G32    29.73R
BROKEN BOW     PTCLDY    55  38  52 S22G36    29.74F
IMPERIAL       CLOUDY    69  24  18 W9        29.80R
NORTH PLATTE   CLOUDY    63  36  36 S10       29.77F
MCCOOK         PTCLDY    62  39  42 SW13G22   29.81R

...EASTERN NEBRASKA...

CITY           SKY/WX    TMP DP  RH WIND       PRES   REMARKS
NORFOLK        CLEAR     45  34  65 S18G30    29.79F
SO SIOUX CITY  CLEAR     43  31  62 SE16      29.86F
TEKAMAH        CLEAR     44  31  60 SE25G33   29.90F
COLUMBUS       CLEAR     45  30  57 S16G24    29.86F
ALBION         PTCLDY    46  33  59 S15G21    29.80F
OMAHA EPPLEY   CLEAR     43  32  65 SE22      29.95F
OFFUTT AFB     CLEAR     41  31  69 SE13      29.95F
MILLARD        CLEAR     44  32  63 SE13G23   29.94F
LINCOLN        CLEAR     45  33  63 S21G31    29.91F
NEBRASKA CITY  CLEAR     43  30  61 S18G24    29.97F
BEATRICE       CLEAR     44  33  65 SE18G25   29.92F
FALLS CITY     CLEAR     41  32  70 SE14      30.00F

...NORTHERN KANSAS...

CITY           SKY/WX    TMP DP  RH WIND       PRES   REMARKS
GOODLAND       CLEAR     58  27  30 S16       29.86S
HILL CITY      CLEAR     59  41  51 S17G28    29.83F
NORTON         CLEAR     57  37  47 S18G28    29.80F
PHILLIPSBURG   CLEAR     59  41  51 SE9       29.85F
SMITH CENTER   CLEAR     50  37  62 SE14      29.86F
BELOIT         CLEAR     52  39  62 SE16      29.87F
HAYS           CLEAR     57  39  51 S21       29.87F
RUSSELL        CLEAR     56  42  59 S23       29.85F
CONCORDIA      CLEAR     49  38  65 SE20      29.89F
SALINA         CLEAR     53  41  63 SE17      29.93F
TOPEKA         CLEAR     43  33  68 SE13      30.05F



USA.gov is the U.S. government's official web portal to all federal, state and local government web resources and services.